LEMUR-2-LB

Last updated on Thu Mar 09 2017 00:15:04 GMT+0000 (Coordinated Universal Time)

1 42066U 98067LB 17067.78395098 .00076382 00000-0 11074-2 0 9999 2 42066 51.6444 178.7819 0007786 289.8129 70.1515 15.55131777 104

Satellite not in orbit